GW0967 Weather Reports


Display with metric or nautical units.
time (UTC)temp
F
wind
direction
speed
MPH
gust
MPH
rain 1hr
in
rain 24hr
in
rain mn
in
humidity
%
barometer
mb
20260507153701 60 339 5.0 9.0 0.00 0.00 0.00 27 1011.5
20260507153157 59 333 11.0 12.0 0.00 0.00 0.00 27 1011.4
20260507152654 59 93 9.0 9.0 0.00 0.00 0.00 26 1011.2
20260507152150 58 53 3.0 14.0 0.00 0.00 0.00 27 1011.4
20260507151646 58 348 3.0 7.0 0.00 0.00 0.00 26 1011.5
20260507151143 58 337 8.0 8.0 0.00 0.00 0.00 26 1011.4
20260507150640 58 34 0.0 9.0 0.00 0.00 0.00 28 1011.6
20260507150137 58 61 6.0 8.0 0.00 0.00 0.00 27 1011.6
20260507145632 58 357 3.0 6.0 0.00 0.00 0.00 27 1011.5
20260507145130 57 89 5.0 9.0 0.00 0.00 0.00 27 1011.6
20260507144626 57 79 3.0 9.0 0.00 0.00 0.00 27 1011.5
20260507144124 57 16 5.0 7.0 0.00 0.00 0.00 28 1011.7
20260507143620 56 8 3.0 4.0 0.00 0.00 0.00 29 1011.4
20260507143118 57 9 6.0 9.0 0.00 0.00 0.00 28 1011.7
20260507142613 56 49 2.0 8.0 0.00 0.00 0.00 29 1011.5
20260507142110 55 25 4.0 8.0 0.00 0.00 0.00 29 1011.6
20260507141606 55 11 5.0 5.0 0.00 0.00 0.00 29 1011.6
20260507141103 55 24 5.0 7.0 0.00 0.00 0.00 29 1011.4
20260507140600 54 84 5.0 6.0 0.00 0.00 0.00 29 1011.5
20260507140057 53 356 2.0 5.0 0.00 0.00 0.00 29 1011.4
20260507135554 54 355 2.0 7.0 0.00 0.00 0.00 29 1011.4
20260507135051 54 2 5.0 8.0 0.00 0.00 0.00 29 1011.1
20260507134548 54 308 3.0 5.0 0.00 0.00 0.00 29 1011.2
20260507134043 53 354 3.0 4.0 0.00 0.00 0.00 30 1011.4
20260507133540 53 32 3.0 4.0 0.00 0.00 0.00 30 1011.4
20260507133038 53 325 2.0 4.0 0.00 0.00 0.00 30 1011.4
20260507132534 53 0 0.0 4.0 0.00 0.00 0.00 30 1011.2
20260507132031 52 355 3.0 4.0 0.00 0.00 0.00 31 1011.2
20260507131528 52 359 3.0 5.0 0.00 0.00 0.00 31 1010.9
20260507131025 52 5 0.0 4.0 0.00 0.00 0.00 31 1010.9
20260507130522 52 74 2.0 4.0 0.00 0.00 0.00 31 1011.0
20260507130020 53 47 0.0 3.0 0.00 0.00 0.00 31 1011.1
20260507125518 53 127 2.0 3.0 0.00 0.00 0.00 38 1010.8
20260507125015 50 120 2.0 2.0 0.00 0.00 0.00 44 1010.9
20260507124512 46 110 3.0 3.0 0.00 0.00 0.00 45 1010.9
20260507124009 44 78 2.0 2.0 0.00 0.00 0.00 49 1010.8
20260507123507 42 132 3.0 3.0 0.00 0.00 0.00 51 1010.6
20260507123004 39 97 2.0 2.0 0.00 0.00 0.00 52 1010.7
20260507122459 38 106 2.0 3.0 0.00 0.00 0.00 55 1010.6
20260507121955 36 112 2.0 2.0 0.00 0.00 0.00 58 1010.8
20260507121451 34 103 0.0 2.0 0.00 0.00 0.00 62 1010.9
20260507120947 32 97 0.0 3.0 0.00 0.00 0.00 63 1010.4
20260507120443 31 112 2.0 3.0 0.00 0.00 0.00 63 1010.7
20260507115940 31 37 0.0 3.0 0.00 0.00 0.00 65 1010.6
20260507115436 30 127 2.0 2.0 0.00 0.00 0.00 65 1010.6
20260507114932 31 98 2.0 3.0 0.00 0.00 0.00 64 1010.4
20260507114429 31 118 2.0 2.0 0.00 0.00 0.00 64 1010.3
20260507113926 31 95 3.0 4.0 0.00 0.00 0.00 63 1010.4
20260507113423 31 107 2.0 2.0 0.00 0.00 0.00 63 1010.0
20260507112921 30 77 0.0 2.0 0.00 0.00 0.00 65 1010.0
20260507112418 30 108 2.0 3.0 0.00 0.00 0.00 64 1010.1
20260507111915 30 115 2.0 2.0 0.00 0.00 0.00 64 1010.3
20260507111412 30 117 2.0 3.0 0.00 0.00 0.00 64 1010.0
20260507110908 31 98 2.0 3.0 0.00 0.00 0.00 62 1010.1
20260507110404 31 77 2.0 3.0 0.00 0.00 0.00 62 1010.0
20260507105901 32 122 2.0 2.0 0.00 0.00 0.00 61 1009.8
20260507105358 32 138 2.0 3.0 0.00 0.00 0.00 62 1009.9
20260507104855 32 100 2.0 2.0 0.00 0.00 0.00 62 1009.7
20260507104351 31 97 0.0 3.0 0.00 0.00 0.00 63 1009.9
20260507103847 31 102 2.0 3.0 0.00 0.00 0.00 63 1009.7
20260507103344 30 114 2.0 2.0 0.00 0.00 0.00 64 1009.8
20260507102840 30 128 2.0 2.0 0.00 0.00 0.00 65 1009.6
20260507102337 30 95 2.0 3.0 0.00 0.00 0.00 65 1009.7
20260507101833 30 106 3.0 3.0 0.00 0.00 0.00 64 1009.8
20260507101328 31 109 2.0 3.0 0.00 0.00 0.00 63 1009.8
20260507100825 31 101 2.0 2.0 0.00 0.00 0.00 64 1009.6
20260507100323 31 108 2.0 2.0 0.00 0.00 0.00 64 1009.6
20260507095821 30 104 0.0 3.0 0.00 0.00 0.00 65 1009.8
20260507095317 30 95 2.0 3.0 0.00 0.00 0.00 65 1010.1
20260507094815 31 106 2.0 3.0 0.00 0.00 0.00 65 1009.8
20260507094311 31 138 0.0 2.0 0.00 0.00 0.00 64 1009.8
20260507093808 31 105 2.0 3.0 0.00 0.00 0.00 64 1010.0
20260507093307 31 118 2.0 3.0 0.00 0.00 0.00 64 1009.9
20260507092804 30 97 2.0 2.0 0.00 0.00 0.00 66 1009.5
20260507092300 30 128 0.0 3.0 0.00 0.00 0.00 66 1009.6
20260507091757 30 92 2.0 2.0 0.00 0.00 0.00 66 1009.5
20260507091254 30 129 2.0 3.0 0.00 0.00 0.00 66 1009.6
20260507090754 30 107 2.0 3.0 0.00 0.00 0.00 64 1009.5
20260507090251 31 113 0.0 2.0 0.00 0.00 0.00 63 1009.5
20260507085748 32 93 2.0 2.0 0.00 0.00 0.00 62 1009.5
20260507085244 32 118 2.0 3.0 0.00 0.00 0.00 62 1009.5
20260507084742 31 127 2.0 2.0 0.00 0.00 0.00 64 1009.4
20260507084238 31 93 0.0 3.0 0.00 0.00 0.00 64 1009.3
20260507083736 31 94 2.0 2.0 0.00 0.00 0.00 63 1009.4
20260507083232 32 126 2.0 3.0 0.00 0.00 0.00 62 1009.5
20260507082728 32 116 2.0 3.0 0.00 0.00 0.00 62 1009.3
20260507082224 31 99 0.0 2.0 0.00 0.00 0.00 63 1009.5
20260507081721 32 111 2.0 3.0 0.00 0.00 0.00 62 1009.5
20260507081217 32 118 2.0 2.0 0.00 0.00 0.00 62 1009.5
20260507080714 32 107 2.0 3.0 0.00 0.00 0.00 62 1009.7
20260507080210 32 110 2.0 3.0 0.00 0.00 0.00 60 1009.7
20260507075705 32 104 2.0 3.0 0.00 0.00 0.00 61 1009.9
20260507075202 33 114 2.0 3.0 0.00 0.00 0.00 60 1009.8
20260507074658 33 79 2.0 3.0 0.00 0.00 0.00 60 1010.0
20260507074157 33 110 3.0 3.0 0.00 0.00 0.00 59 1010.0
20260507073653 34 108 2.0 4.0 0.00 0.00 0.00 58 1010.1
20260507073149 35 92 3.0 4.0 0.00 0.00 0.00 56 1010.1
20260507072647 35 107 0.0 3.0 0.00 0.00 0.00 55 1009.9
20260507072144 35 148 2.0 2.0 0.00 0.00 0.00 56 1009.9
20260507071642 34 82 2.0 3.0 0.00 0.00 0.00 55 1009.9
20260507071138 34 121 2.0 2.0 0.00 0.00 0.00 60 1010.0
20260507070635 33 122 0.0 2.0 0.00 0.00 0.00 60 1009.8
20260507070132 33 87 2.0 3.0 0.00 0.00 0.00 61 1010.0
20260507065628 34 109 2.0 3.0 0.00 0.00 0.00 60 1010.1
20260507065125 34 110 2.0 3.0 0.00 0.00 0.00 59 1010.3
20260507064623 35 95 2.0 3.0 0.00 0.00 0.00 57 1010.3
20260507064121 35 117 3.0 3.0 0.00 0.00 0.00 56 1010.3
20260507063618 35 32 0.0 2.0 0.00 0.00 0.00 57 1010.1
20260507063115 35 115 3.0 3.0 0.00 0.00 0.00 56 1010.4
20260507062612 36 146 2.0 2.0 0.00 0.00 0.00 57 1010.5
20260507062110 35 103 0.0 3.0 0.00 0.00 0.00 56 1010.6
20260507061607 36 113 4.0 4.0 0.00 0.00 0.00 55 1010.6
20260507061105 36 135 3.0 3.0 0.00 0.00 0.00 55 1010.8
20260507060603 36 49 3.0 4.0 0.00 0.00 0.00 54 1010.7
20260507060059 37 116 3.0 3.0 0.00 0.00 0.00 52 1010.6
20260507055554 37 64 0.0 4.0 0.00 0.00 0.00 52 1010.6
20260507055051 37 58 2.0 3.0 0.00 0.00 0.00 51 1010.5
20260507054547 38 83 2.0 3.0 0.00 0.00 0.00 50 1010.6
20260507054044 39 131 0.0 2.0 0.00 0.00 0.00 48 1010.8
20260507053542 39 75 2.0 2.0 0.00 0.00 0.00 48 1010.5
20260507053040 39 110 0.0 2.0 0.00 0.00 0.00 48 1010.7
20260507052537 38 55 0.0 2.0 0.00 0.00 0.00 50 1010.7
20260507052034 37 130 0.0 2.0 0.00 0.00 0.00 52 1010.6
20260507051532 37 92 2.0 3.0 0.00 0.00 0.00 52 1010.9
20260507051029 37 150 0.0 3.0 0.00 0.00 0.00 54 1010.7
20260507050525 37 123 0.0 2.0 0.00 0.00 0.00 53 1010.8
20260507050021 38 101 3.0 3.0 0.00 0.00 0.00 51 1010.8
20260507045518 39 99 2.0 2.0 0.00 0.00 0.00 48 1011.0
20260507045016 40 122 3.0 3.0 0.00 0.00 0.00 47 1010.9
20260507044512 40 112 2.0 3.0 0.00 0.00 0.00 47 1010.7
20260507044009 40 139 2.0 3.0 0.00 0.00 0.00 47 1011.0
20260507043505 40 137 2.0 3.0 0.00 0.00 0.00 48 1011.2
20260507043001 40 130 2.0 3.0 0.00 0.00 0.00 48 1011.2
20260507042458 40 140 2.0 2.0 0.00 0.00 0.00 49 1011.4
20260507041954 40 136 2.0 3.0 0.00 0.00 0.00 49 1011.2
20260507041451 39 151 0.0 2.0 0.00 0.00 0.00 49 1011.4
20260507040948 39 141 2.0 2.0 0.00 0.00 0.00 50 1011.6
20260507040443 39 110 2.0 2.0 0.00 0.00 0.00 50 1011.8
20260507035939 39 76 0.0 2.0 0.00 0.00 0.00 49 1011.6
20260507035436 39 88 0.0 2.0 0.00 0.00 0.00 49 1011.8
20260507034933 40 101 2.0 2.0 0.00 0.00 0.00 49 1011.6
20260507034430 41 117 2.0 3.0 0.00 0.00 0.00 48 1011.7
20260507033928 42 111 2.0 3.0 0.00 0.00 0.00 45 1011.8
20260507033425 42 125 2.0 2.0 0.00 0.00 0.00 45 1011.9
20260507032922 42 115 2.0 3.0 0.00 0.00 0.00 45 1012.0
20260507032419 41 148 0.0 2.0 0.00 0.00 0.00 46 1012.1
20260507031915 41 119 0.0 2.0 0.00 0.00 0.00 48 1011.9
20260507031412 41 113 0.0 2.0 0.00 0.00 0.00 48 1012.2
20260507030909 41 132 0.0 2.0 0.00 0.00 0.00 47 1012.2
20260507030406 42 121 2.0 3.0 0.00 0.00 0.00 46 1012.2
20260507025903 42 112 0.0 2.0 0.00 0.00 0.00 45 1012.3
20260507025400 43 107 2.0 2.0 0.00 0.00 0.00 43 1012.1
20260507024858 44 123 0.0 2.0 0.00 0.00 0.00 42 1012.1
20260507024355 44 130 0.0 2.0 0.00 0.00 0.00 40 1012.2
20260507023851 45 77 0.0 2.0 0.00 0.00 0.00 39 1012.1
20260507023348 45 51 0.0 2.0 0.00 0.00 0.00 39 1012.1
20260507022845 45 89 0.0 2.0 0.00 0.00 0.00 39 1012.1
20260507022342 45 84 0.0 2.0 0.00 0.00 0.00 38 1012.2
20260507021837 46 106 0.0 0.0 0.00 0.00 0.00 38 1012.2
20260507021333 46 66 0.0 2.0 0.00 0.00 0.00 37 1012.1
20260507020831 47 113 0.0 2.0 0.00 0.00 0.00 36 1012.1
20260507020328 48 117 2.0 2.0 0.00 0.00 0.00 35 1012.2
20260507015825 49 65 0.0 2.0 0.00 0.00 0.00 33 1012.5
20260507015323 50 128 2.0 3.0 0.00 0.00 0.00 32 1012.3
20260507014820 50 160 2.0 4.0 0.00 0.00 0.00 32 1012.0
20260507014316 50 133 0.0 3.0 0.00 0.00 0.00 31 1012.3
20260507013812 51 126 2.0 3.0 0.00 0.00 0.00 30 1012.3
20260507013310 51 122 2.0 4.0 0.00 0.00 0.00 30 1012.5
20260507012807 52 121 3.0 6.0 0.00 0.00 0.00 29 1012.1
20260507012306 52 95 4.0 8.0 0.00 0.00 0.00 29 1012.5
20260507011800 52 137 3.0 4.0 0.00 0.00 0.00 30 1012.5
20260507011257 52 102 2.0 5.0 0.00 0.00 0.00 28 1012.3
20260507010756 53 100 5.0 6.0 0.00 0.00 0.00 28 1012.2
20260507010252 53 105 4.0 5.0 0.00 0.00 0.00 29 1012.2
20260507005750 53 154 4.0 6.0 0.00 0.00 0.00 28 1012.2
20260507005246 54 143 3.0 7.0 0.00 0.00 0.00 27 1012.3
20260507004743 54 112 7.0 9.0 0.00 0.00 0.00 28 1012.5
20260507004241 54 133 5.0 7.0 0.00 0.00 0.00 28 1012.1
20260507003736 54 147 2.0 6.0 0.00 0.00 0.00 28 1012.3
20260507003232 53 118 2.0 5.0 0.00 0.00 0.00 29 1012.3
20260507002728 54 170 6.0 7.0 0.00 0.00 0.00 27 1012.6
20260507002224 54 88 9.0 13.0 0.00 0.00 0.00 27 1012.6
20260507001721 54 101 5.0 10.0 0.00 0.00 0.00 27 1012.7
20260507001219 55 80 7.0 9.0 0.00 0.00 0.00 28 1012.6
20260507000715 55 73 5.0 6.0 0.00 0.00 0.00 27 1012.8
20260507000212 55 57 3.0 7.0 0.00 0.00 0.00 27 1012.8
20260506235708 56 83 7.0 7.0 0.00 0.00 0.00 25 1013.0
20260506235203 56 359 3.0 5.0 0.00 0.00 0.00 26 1012.9
20260506234700 56 26 0.0 3.0 0.00 0.00 0.00 26 1013.0
20260506234157 55 13 3.0 5.0 0.00 0.00 0.00 27 1013.1
20260506233655 56 306 2.0 5.0 0.00 0.00 0.00 26 1013.1
20260506233151 56 95 4.0 5.0 0.00 0.00 0.00 25 1013.3
20260506232647 56 302 4.0 4.0 0.00 0.00 0.00 26 1013.6
20260506232143 56 332 4.0 5.0 0.00 0.00 0.00 26 1013.4
20260506231640 55 338 4.0 9.0 0.00 0.00 0.00 26 1013.1
20260506231139 56 11 3.0 4.0 0.00 0.00 0.00 25 1013.4
20260506230635 55 147 3.0 6.0 0.00 0.00 0.00 27 1013.2
20260506230132 55 62 8.0 8.0 0.00 0.00 0.00 26 1013.2
20260506225629 56 115 7.0 11.0 0.00 0.00 0.00 25 1013.4
20260506225125 56 191 2.0 6.0 0.00 0.00 0.00 26 1013.4
20260506224622 55 14 3.0 4.0 0.00 0.00 0.00 26 1013.7
20260506224118 55 96 7.0 9.0 0.00 0.00 0.00 26 1013.3
20260506223615 57 106 4.0 12.0 0.00 0.00 0.00 26 1013.6
20260506223111 56 116 4.0 8.0 0.00 0.00 0.00 26 1013.6
20260506222608 56 323 3.0 7.0 0.00 0.00 0.00 26 1013.9
20260506222104 55 22 3.0 9.0 0.00 0.00 0.00 26 1013.8
20260506221602 56 105 5.0 11.0 0.00 0.00 0.00 26 1013.9
20260506221100 56 97 6.0 9.0 0.00 0.00 0.00 26 1014.0
20260506220556 56 94 6.0 11.0 0.00 0.00 0.00 27 1014.1
20260506220051 55 359 2.0 7.0 0.00 0.00 0.00 27 1014.2
20260506215548 56 125 6.0 9.0 0.00 0.00 0.00 26 1014.1
20260506215044 56 165 5.0 8.0 0.00 0.00 0.00 26 1014.7
20260506214541 56 112 11.0 11.0 0.00 0.00 0.00 26 1014.2
20260506214038 56 121 4.0 10.0 0.00 0.00 0.00 25 1014.4
20260506213536 56 161 9.0 9.0 0.00 0.00 0.00 27 1014.4
20260506213033 57 185 5.0 11.0 0.00 0.00 0.00 25 1014.8
20260506212530 57 53 3.0 4.0 0.00 0.00 0.00 25 1014.8
20260506212025 56 214 2.0 3.0 0.00 0.00 0.00 26 1014.9
20260506211521 57 97 7.0 7.0 0.00 0.00 0.00 25 1015.0
20260506211018 56 128 7.0 11.0 0.00 0.00 0.00 27 1015.3
20260506210515 56 107 5.0 7.0 0.00 0.00 0.00 26 1015.1
20260506210011 55 211 2.0 5.0 0.00 0.00 0.00 28 1015.3
20260506205508 55 208 3.0 9.0 0.00 0.00 0.00 27 1015.3
20260506205003 54 346 6.0 7.0 0.00 0.00 0.00 27 1015.5
20260506204502 54 76 5.0 8.0 0.00 0.00 0.00 27 1015.6
20260506203958 55 223 0.0 7.0 0.00 0.00 0.00 27 1015.6
20260506203456 55 24 3.0 9.0 0.00 0.00 0.00 27 1015.6
20260506202953 55 168 5.0 15.0 0.00 0.00 0.00 28 1015.8
20260506202450 55 50 7.0 10.0 0.00 0.00 0.00 27 1015.6
20260506201946 53 42 4.0 11.0 0.00 0.00 0.00 28 1015.8
20260506201444 54 94 5.0 7.0 0.00 0.00 0.00 26 1015.6
20260506200940 54 199 2.0 5.0 0.00 0.00 0.00 29 1015.9
20260506200437 54 126 11.0 18.0 0.00 0.00 0.00 27 1016.1
20260506195933 54 351 4.0 5.0 0.00 0.00 0.00 27 1016.0
20260506195430 54 329 6.0 11.0 0.00 0.00 0.00 27 1016.1
20260506194927 53 47 7.0 8.0 0.00 0.00 0.00 28 1016.1
20260506194424 52 91 9.0 12.0 0.00 0.00 0.00 29 1016.2
20260506193921 53 63 7.0 20.0 0.00 0.00 0.00 28 1016.5
20260506193418 54 134 5.0 11.0 0.00 0.00 0.00 27 1016.2
20260506192914 53 217 2.0 6.0 0.00 0.00 0.00 28 1016.6
20260506192411 53 162 5.0 9.0 0.00 0.00 0.00 28 1016.2
20260506191908 53 151 3.0 14.0 0.00 0.00 0.00 29 1016.1
20260506191405 51 114 4.0 8.0 0.00 0.00 0.00 30 1016.3
20260506190902 51 78 11.0 17.0 0.00 0.00 0.00 29 1016.6
20260506190358 51 247 0.0 10.0 0.00 0.00 0.00 28 1016.7
20260506185855 52 81 8.0 9.0 0.00 0.00 0.00 28 1016.9
20260506185352 51 93 8.0 9.0 0.00 0.00 0.00 28 1016.7
20260506184849 51 183 6.0 11.0 0.00 0.00 0.00 29 1016.7
20260506184346 49 139 7.0 10.0 0.00 0.00 0.00 30 1017.0
20260506183843 50 131 3.0 9.0 0.00 0.00 0.00 31 1017.0
20260506183338 51 2 7.0 15.0 0.00 0.00 0.00 28 1017.1
20260506182836 50 139 5.0 5.0 0.00 0.00 0.00 31 1017.3
20260506182333 51 72 6.0 12.0 0.00 0.00 0.00 30 1017.1
20260506181831 52 110 5.0 11.0 0.00 0.00 0.00 29 1017.5
20260506181329 51 37 4.0 7.0 0.00 0.00 0.00 29 1017.4
20260506180825 50 285 3.0 6.0 0.00 0.00 0.00 29 1017.9
20260506180321 49 58 3.0 9.0 0.00 0.00 0.00 30 1017.6
20260506175818 50 70 15.0 15.0 0.00 0.00 0.00 29 1017.9
20260506175315 50 139 5.0 9.0 0.00 0.00 0.00 30 1017.9
20260506174812 49 74 4.0 13.0 0.00 0.00 0.00 31 1018.0
20260506174309 50 118 14.0 14.0 0.00 0.00 0.00 29 1018.1
20260506173807 50 153 7.0 12.0 0.00 0.00 0.00 30 1018.1
20260506173303 49 127 0.0 9.0 0.00 0.00 0.00 29 1018.1
20260506172800 48 143 7.0 14.0 0.00 0.00 0.00 31 1018.4
20260506172257 48 122 11.0 15.0 0.00 0.00 0.00 30 1018.3
20260506171755 48 97 7.0 17.0 0.00 0.00 0.00 31 1018.2
20260506171251 48 117 11.0 16.0 0.00 0.00 0.00 30 1018.5
20260506170749 48 101 6.0 11.0 0.00 0.00 0.00 31 1018.2
20260506170245 47 140 9.0 13.0 0.00 0.00 0.00 30 1018.6
20260506165744 48 72 5.0 8.0 0.00 0.00 0.00 30 1018.3
20260506165241 48 103 3.0 14.0 0.00 0.00 0.00 31 1018.4
20260506164738 48 112 10.0 10.0 0.00 0.00 0.00 30 1018.5
20260506164235 48 23 5.0 8.0 0.00 0.00 0.00 31 1018.7
20260506163732 47 135 5.0 14.0 0.00 0.00 0.00 31 1018.5
20260506163226 47 65 8.0 11.0 0.00 0.00 0.00 31 1019.0
20260506162722 47 32 4.0 15.0 0.00 0.00 0.00 30 1018.6
20260506162220 48 97 7.0 14.0 0.00 0.00 0.00 30 1018.7
20260506161717 48 74 8.0 9.0 0.00 0.00 0.00 30 1018.6
20260506161215 47 101 4.0 8.0 0.00 0.00 0.00 34 1018.8
20260506160712 46 345 10.0 10.0 0.00 0.00 0.00 32 1018.7
20260506160209 46 104 5.0 11.0 0.00 0.00 0.00 31 1019.1
20260506155707 47 33 4.0 7.0 0.00 0.00 0.00 32 1019.0
20260506155204 47 3 3.0 5.0 0.00 0.00 0.00 32 1018.7